Wellsville, NY

4:12 AM EST on December 07, 2019 (GMT -0500)
Wellsville Municipal-Tarantine

Weather History for KELZ - November, 2019

Change the Weather History Date:

Monday, November 11, 2019

  Actual Average (KDSV) Record (KDSV)
Temperature  
Mean Temperature 30 °F -  
Max Temperature 36 °F 51 °F 75 °F (2012)
Min Temperature 24 °F 33 °F 15 °F (1991)
Degree Days  
Heating Degree Days 35    
Moisture  
Dew Point 29 °F    
Average Humidity 99    
Maximum Humidity 100    
Minimum Humidity 96    
Precipitation  
Precipitation 0.09 in - - ()
Sea Level Pressure  
Sea Level Pressure 29.99 in    
Wind  
Wind Speed 4 mph ()    
Max Wind Speed 10 mph    
Max Gust Speed -    
Visibility 3.4 miles    
Events Fog , Rain , Snow    
Averages and records for this station are not official NWS values.
T = Trace of Precipitation, MM = Missing Value Source: Averaged Metar Reports

Daily Weather History Graph

Daily Weather History Graph

Search for Another Location

Airport or City:

Astronomy

Nov. 11, 2019 Rise Set
Actual Time 6:56 AM EST 4:54 PM EST
Civil Twilight 6:27 AM EST 5:24 PM EST
Nautical Twilight 5:53 AM EST 5:57 PM EST
Astronomical Twilight 5:20 AM EST 6:30 PM EST
Moon 4:50 PM EST (11/11) 5:44 AM EST (11/11)
Length of Visible Light 10h 57m
Length of Day
9h 57m
Waxing Gibbous, 99% of the Moon is Illuminated
Nov 11
Waxing Gibbous
Nov 12
Full
Nov 19
Last Quarter
Nov 26
New
Dec 4
First Quarter

Hourly Weather History & Observations

Time (EST) Temp. Windchill Dew Point Humidity Pressure Visibility Wind Dir Wind Speed Gust Speed Precip Events Conditions
12:56 AM 36.0 °F 30.3 °F 35.1 °F 97% 30.04 in 6.0 mi North 6.9 mph - N/A   Overcast
1:56 AM 36.0 °F - 35.1 °F 97% 30.06 in 5.0 mi Calm Calm - N/A   Overcast
2:49 AM 36.0 °F - 35.1 °F 97% 30.02 in 4.0 mi Calm Calm - N/A   Overcast
2:56 AM 36.0 °F - 35.1 °F 97% 30.06 in 3.0 mi Calm Calm - N/A   Overcast
3:40 AM 35.1 °F 31.0 °F 35.1 °F 100% 30.02 in 2.5 mi North 4.6 mph - N/A   Overcast
3:56 AM 35.1 °F 32.2 °F 35.1 °F 100% 30.07 in 2.5 mi North 3.5 mph - N/A   Overcast
4:56 AM 34.0 °F 28.8 °F 34.0 °F 100% 30.08 in 2.0 mi NNW 5.8 mph - 0.01 in Rain Light Rain
5:08 AM 34.0 °F 29.8 °F 34.0 °F 100% 30.03 in 1.8 mi North 4.6 mph - 0.00 in Rain Light Rain
5:44 AM 34.0 °F 31.0 °F 34.0 °F 100% 30.04 in 0.8 mi North 3.5 mph - 0.00 in Rain Light Rain
5:56 AM 34.0 °F 29.8 °F 34.0 °F 100% 30.09 in 1.2 mi North 4.6 mph - 0.00 in   Overcast
6:05 AM 34.0 °F 31.0 °F 34.0 °F 100% 30.04 in 0.5 mi North 3.5 mph - N/A Fog Fog
6:12 AM 34.0 °F 29.8 °F 34.0 °F 100% 30.04 in 0.2 mi NNE 4.6 mph - N/A Fog Fog
6:56 AM 34.0 °F 31.0 °F 34.0 °F 100% 30.11 in 0.2 mi NNE 3.5 mph - N/A Fog Fog
7:56 AM 32.0 °F 27.5 °F 32.0 °F 100% 30.12 in 0.2 mi North 4.6 mph - N/A Fog Fog
8:36 AM 33.1 °F 28.7 °F 33.1 °F 100% 30.06 in 1.0 mi NE 4.6 mph - N/A   Mist
8:45 AM 33.1 °F 27.7 °F 33.1 °F 100% 30.06 in 3.0 mi ENE 5.8 mph - N/A   Overcast
8:53 AM 33.8 °F 29.6 °F 33.8 °F 100% 30.06 in 2.5 mi ENE 4.6 mph - N/A   Overcast
8:56 AM 33.1 °F 26.9 °F 33.1 °F 100% 30.12 in 2.5 mi ENE 6.9 mph - N/A   Overcast
9:56 AM 33.1 °F 26.9 °F 33.1 °F 100% 30.10 in 0.2 mi NE 6.9 mph - N/A Fog Fog
10:56 AM 32.0 °F 26.4 °F 32.0 °F 100% 30.10 in 0.2 mi ENE 5.8 mph - N/A Fog Fog
11:56 AM 30.9 °F 22.8 °F 30.9 °F 100% 30.08 in 0.2 mi ENE 9.2 mph - N/A Fog Light Freezing Fog
12:56 PM 28.9 °F 20.4 °F 28.9 °F 100% 30.06 in 0.2 mi ENE 9.2 mph - N/A Fog Light Freezing Fog
1:56 PM 28.0 °F 21.7 °F 28.0 °F 100% 30.04 in 0.5 mi ENE 5.8 mph - N/A Fog Light Freezing Fog
2:13 PM 28.0 °F 20.0 °F 28.0 °F 100% 29.97 in 1.2 mi ENE 8.1 mph - N/A   Overcast
2:25 PM 28.0 °F 20.0 °F 28.0 °F 100% 29.97 in 3.0 mi ENE 8.1 mph - N/A   Overcast
2:56 PM 27.0 °F 18.0 °F 26.1 °F 96% 30.01 in 6.0 mi East 9.2 mph - N/A   Overcast
3:17 PM 27.0 °F 17.3 °F 26.1 °F 96% 29.94 in 10.0 mi ENE 10.4 mph - N/A   Overcast
3:56 PM 26.1 °F 16.2 °F 26.1 °F 100% 30.00 in 9.0 mi ENE 10.4 mph - N/A   Overcast
4:56 PM 26.1 °F 18.4 °F 25.0 °F 96% 30.00 in 10.0 mi ENE 6.9 mph - N/A   Overcast
5:22 PM 26.1 °F - 25.0 °F 96% 29.92 in 6.0 mi North - - 0.00 in   Overcast
5:56 PM 26.1 °F - 25.0 °F 96% 29.98 in 8.0 mi North - - 0.00 in   Overcast
6:56 PM 24.1 °F - 24.1 °F 100% 29.97 in 10.0 mi North - - N/A   Overcast
7:56 PM 24.1 °F - 24.1 °F 100% 29.93 in 10.0 mi North - - N/A   Overcast
8:27 PM 24.1 °F - 24.1 °F 100% 29.84 in 5.0 mi North - - N/A   Overcast
8:56 PM 24.1 °F - 24.1 °F 100% 29.92 in 10.0 mi North - - N/A   Overcast
9:56 PM 24.1 °F - 24.1 °F 100% 29.90 in 4.0 mi North - - 0.00 in Rain Light Freezing Rain
10:56 PM 25.0 °F - 25.0 °F 100% 29.88 in 2.5 mi North - - 0.03 in Rain Light Freezing Rain
11:03 PM 25.0 °F - 24.1 °F 96% 29.80 in 2.0 mi North - - 0.01 in Rain Light Freezing Rain
11:14 PM 24.1 °F - 24.1 °F 100% 29.80 in 3.0 mi North - - 0.01 in Rain Light Freezing Rain
11:25 PM 24.1 °F - 23.0 °F 96% 29.79 in 4.0 mi North - - 0.02 in   Overcast
11:39 PM 24.1 °F - 23.0 °F 96% 29.80 in 1.8 mi North - - 0.03 in Snow Light Snow
11:46 PM 24.1 °F - 23.0 °F 96% 29.80 in 0.8 mi North - - 0.04 in Snow Light Snow
11:56 PM 24.1 °F - 23.0 °F 96% 29.88 in 0.5 mi North - - 0.05 in Fog , Snow Snow